Skip Navigation Links
NOAA logo - Click to go to the NOAA homepage
NOAA's National Weather Service
Alaska Aviation Weather Unit
  NWS logo - Click to go to the NWS homepage
Left Navbar Graphic     17 AKDT = 01 GMT

   
NOAA is celebrating 200 years of science, service, and stewardship. Visit the NOAA 200th celebration Web site to learn more.
USA.gov is the U.S. Government's official Web portal to all Federal, state and local government Web resources and services.
Facebook
NWS on Facebook

Important Change Regarding the AAWU Web Presence

 

Over the last several months, the AAWU has been working to navigate its webpages to a nationally supported server. Security, as well as other needs, have necessitated the change.  In the process, we have made an effort to enhance the functionality of our website, as well as some of our products. As of June 27, 2017, aawu.arh.noaa.gov will be discontinued. The new AAWU web address is weather.gov/aawu. It is now live and will run in-parallel with the old site until it is discontinued. Please send any feedback or questions regarding the new webpages to nws.ar.aawu.webauthors@noaa.gov.  Thank you for your patience during this time of transition.
AAWU Home :: Display TAF Add Bookmark
METAR PAPN 251956Z AUTO 16015KT 10SM SCT035 13/05 A3000 RMK AO2
 SLP162 T01330050=

METAR PAPN 252056Z AUTO 18013G22KT 10SM FEW033 BKN065 13/06 A3000
 RMK AO2 SLP161 T01330056 56009=

METAR PAPN 252156Z AUTO 18018G23KT 10SM -RA OVC060 12/06 A2999 RMK
 AO2 RAB48 SLP159 P0000 T01170056=

METAR PAPN 252256Z AUTO 18018G23KT 10SM -RA FEW023 BKN060 OVC085
 11/06 A2998 RMK AO2 SLP154 P0000 T01110061=

METAR PAPN 252356Z AUTO 17011KT 10SM -RA BKN075 OVC085 10/07 A2996
 RMK AO2 SLP149 P0000 60000 T01000072 10144 20100 58013=


NOAA's National Weather Service
Alaska Aviation Weather Unit
6930 Sand Lake Road
Anchorage, AK 99502-1845
Disclaimer
Credits
Glossary
Privacy Policy
About Us
Career Opportunities
Contact AAWU Internet Services Site last modified: April, 17th 2012